Gillette, WY

3:59 PM MST on January 21, 2017 (GMT -0700)
Gillette

Weather History for KGCC - October, 2013

Change the Weather History Date:

Wednesday, October 23, 2013

  Actual Average Record
Temperature  
Mean Temperature 45 °F 43 °F  
Max Temperature 54 °F 56 °F 80 °F (2003)
Min Temperature 36 °F 29 °F 15 °F (1942)
Degree Days  
Heating Degree Days 20 22  
Month to date heating degree days 485 424  
Since 1 July heating degree days 626 719  
Cooling Degree Days 0 0  
Month to date cooling degree days 0 0  
Year to date cooling degree days 615 500  
Moisture  
Dew Point 37 °F    
Average Humidity 73    
Maximum Humidity 92    
Minimum Humidity 54    
Precipitation  
Precipitation 0.00 in 0.04 in 0.70 in (1925)
Month to date precipitation 2.62 1.06  
Year to date precipitation 18.43 12.73  
Sea Level Pressure  
Sea Level Pressure 30.16 in    
Wind  
Wind Speed 9 mph (NW)    
Max Wind Speed 18 mph    
Max Gust Speed 23 mph    
Visibility 10 miles    
Events      
T = Trace of Precipitation, MM = Missing Value Source: NWS Daily Summary

Daily Weather History Graph

Daily Weather History Graph

Search for Another Location

Airport or City:

Trip Planner

Search our weather history database for the weather conditions in past years. The results will help you decide how hot, cold, wet, or windy it might be!

Date:

Astronomy

Oct. 23, 2013 Rise Set
Actual Time 7:27 AM MDT 6:04 PM MDT
Civil Twilight 6:58 AM MDT 6:34 PM MDT
Nautical Twilight 6:24 AM MDT 7:07 PM MDT
Astronomical Twilight 5:50 AM MDT 7:41 PM MDT
Moon 9:32 PM MDT (10/23) 11:52 AM MDT (10/23)
Length of Visible Light 11h 35m
Length of Day
10h 36m
Waning Gibbous, 79% of the Moon is Illuminated
Oct 23
Waning Gibbous
Oct 26
Last Quarter
Nov 3
New
Nov 9
First Quarter
Nov 17
Full

Hourly Weather History & Observations

Time (MDT) Temp. Windchill Dew Point Humidity Pressure Visibility Wind Dir Wind Speed Gust Speed Precip Events Conditions
12:53 AM 43.0 °F 37.7 °F 36.0 °F 76% 30.05 in 10.0 mi West 9.2 mph - N/A   Clear
1:53 AM 44.1 °F 37.4 °F 36.0 °F 73% 30.05 in 10.0 mi West 13.8 mph - N/A   Scattered Clouds
2:53 AM 44.1 °F 37.7 °F 35.1 °F 71% 30.04 in 10.0 mi West 12.7 mph - N/A   Clear
3:53 AM 42.1 °F 34.5 °F 35.1 °F 76% 30.04 in 10.0 mi West 15.0 mph - N/A   Clear
4:53 AM 43.0 °F 35.7 °F 35.1 °F 74% 30.06 in 10.0 mi West 15.0 mph - N/A   Clear
5:53 AM 45.0 °F 38.9 °F 35.1 °F 68% 30.11 in 10.0 mi NW 12.7 mph - N/A   Clear
6:53 AM 41.0 °F 33.9 °F 34.0 °F 76% 30.13 in 10.0 mi WNW 12.7 mph - N/A   Clear
7:53 AM 42.1 °F 36.6 °F 35.1 °F 76% 30.15 in 10.0 mi NW 9.2 mph - N/A   Clear
8:53 AM 43.0 °F 37.7 °F 36.0 °F 76% 30.18 in 10.0 mi WNW 9.2 mph - N/A   Partly Cloudy
9:53 AM 46.9 °F - 37.0 °F 68% 30.18 in 10.0 mi WNW 8.1 mph - N/A   Clear
10:53 AM 48.0 °F - 37.0 °F 66% 30.18 in 10.0 mi North 10.4 mph - N/A   Partly Cloudy
11:53 AM 51.1 °F - 39.0 °F 63% 30.17 in 10.0 mi North 12.7 mph - N/A   Clear
12:53 PM 52.0 °F - 37.9 °F 59% 30.17 in 10.0 mi NNW 15.0 mph 18.4 mph N/A   Scattered Clouds
1:53 PM 54.0 °F - 39.0 °F 57% 30.15 in 10.0 mi North 11.5 mph - N/A   Partly Cloudy
2:53 PM 54.0 °F - 37.9 °F 55% 30.15 in 10.0 mi NNW 17.3 mph 23.0 mph N/A   Clear
3:53 PM 52.0 °F - 37.0 °F 57% 30.17 in 10.0 mi North 13.8 mph - N/A   Partly Cloudy
4:53 PM 50.0 °F - 39.0 °F 66% 30.18 in 10.0 mi North 12.7 mph - N/A   Mostly Cloudy
5:53 PM 46.9 °F - 39.0 °F 74% 30.19 in 10.0 mi North 8.1 mph - N/A   Scattered Clouds
6:53 PM 42.1 °F 39.2 °F 37.0 °F 82% 30.23 in 10.0 mi NE 4.6 mph - N/A   Partly Cloudy
7:53 PM 37.0 °F - 35.1 °F 93% 30.26 in 10.0 mi Calm Calm - N/A   Mostly Cloudy
8:53 PM 39.0 °F - 37.0 °F 93% 30.27 in 10.0 mi Calm Calm - N/A   Overcast
9:53 PM 39.9 °F - 37.0 °F 89% 30.25 in 10.0 mi Calm Calm - N/A   Overcast
10:53 PM 39.9 °F 37.8 °F 37.0 °F 89% 30.26 in 10.0 mi NNE 3.5 mph - N/A   Overcast
11:53 PM 39.9 °F - 37.0 °F 89% 30.25 in 10.0 mi Calm Calm - N/A   Overcast